Flag for Norway Weather past 2 weeks in Drøbak, Norway

Now
43 °F

Sprinkles. Partly sunny.


Feels Like: 30 °F
Forecast: 33 / 38 °F
Wind: 44 mph from West

Location: Oslo / Fornebu

Current Time: Dec 22, 2014 at 11:07:31 AM

Latest Report: Dec 22, 2014 at 10:20 AM


Visibility: N/A

Pressure: 29.09 "Hg

Humidity: 81%

Dew point: 37 °F

Location of DrøbakLocation

Historic Weather in Drøbak — Graph

°F

Drøbak temperature yesterday

Maximum temperature yesterday: 48 °F (at 12:20 PM)
Minimum temperature yesterday: 43 °F (at 12:20 AM)
Average temperature yesterday: 45 °F

Past Weeks' High & Low Weather Summary

 TemperatureHumidityPressure
High48 °F (Dec 14, 9:20 AM)100% (Dec 9, 6:20 PM)29.98 "Hg (Dec 9, 6:20 PM)
Low32 °F (Dec 15, 9:20 PM)41% (Dec 15, 11:20 AM)28.53 "Hg (Dec 11, 2:50 AM)
Average42 °F74%29.14 "Hg
* Reported Dec 7 9:20 AM — Dec 22 9:50 AM, Drøbak, Weather by CustomWeather, © 2014

Note: Actual official high and low records may vary slightly from our data, if they occured in-between our weather recording intervals... More about our weather records

Advertising

Drøbak weather history for previous 24 hours

 ConditionsComfort  
Time TempWeatherWind HumidityBarometerVisibility
9:50 AM
Dec 22
45 °FPartly sunny.38 mph71%29.09 "HgN/A
9:20 AM43 °FPartly sunny.33 mph81%29.09 "HgN/A
8:50 AM43 °FPassing clouds.32 mph71%29.12 "HgN/A
8:20 AM41 °FSprinkles. Partly cloudy.28 mph81%29.12 "HgN/A
7:50 AM43 °FPassing clouds.30 mph71%29.12 "HgN/A
7:20 AM43 °FSprinkles. Passing clouds.33 mph76%29.12 "HgN/A
6:50 AM45 °FPassing clouds.31 mph57%29.12 "HgN/A
6:20 AM43 °FPassing clouds.30 mph71%29.15 "HgN/A
5:50 AM43 °FPassing clouds.28 mph71%29.15 "HgN/A
5:20 AM41 °FPassing clouds.28 mph76%29.15 "HgN/A
4:50 AM41 °FPassing clouds.29 mph76%29.15 "HgN/A
4:20 AM43 °FPassing clouds.38 mph66%29.15 "HgN/A
3:50 AM41 °FPassing clouds.32 mph76%29.18 "HgN/A
3:20 AM39 °FSprinkles. Passing clouds.32 mph87%29.18 "HgN/A
2:50 AM43 °FPassing clouds.35 mph66%29.15 "HgN/A
2:20 AM43 °FPassing clouds.37 mph71%29.15 "HgN/A
1:50 AM41 °FPartly cloudy.28 mph81%29.18 "HgN/A
1:20 AM39 °FSprinkles. Passing clouds.41 mph87%29.15 "HgN/A
12:50 AM41 °FPartly cloudy.31 mph87%29.15 "HgN/A
12:20 AM41 °FRain. Passing clouds.32 mph87%29.18 "Hg4 mi
11:50 PM
Dec 21
43 °FSprinkles. Partly cloudy.47 mph81%29.15 "Hg5 mi
11:20 PM45 °FPartly cloudy.35 mph76%29.15 "HgN/A
10:50 PM45 °FPassing clouds.35 mph76%29.15 "HgN/A
10:20 PM45 °FRain showers. Fog.39 mph81%29.18 "Hg1 mi
9:50 PM46 °FPassing clouds.40 mph66%29.18 "HgN/A
9:20 PM46 °FPassing clouds.33 mph76%29.18 "HgN/A
8:50 PM46 °FPassing clouds.37 mph76%29.18 "HgN/A
8:20 PM46 °FSprinkles. Passing clouds.31 mph76%29.21 "HgN/A
7:50 PM48 °FPassing clouds.32 mph71%29.21 "HgN/A
7:20 PM46 °FSprinkles. Passing clouds.32 mph87%29.21 "HgN/A
6:50 PM48 °FSprinkles. Passing clouds.29 mph87%29.21 "HgN/A
6:20 PM48 °FPassing clouds.33 mph94%29.21 "HgN/A
5:50 PM48 °FPassing clouds.32 mph94%29.24 "HgN/A
5:20 PM48 °FPartly cloudy.32 mph94%29.24 "HgN/A
4:50 PM48 °FPassing clouds.26 mph94%29.24 "HgN/A
4:20 PM48 °FPartly cloudy.33 mph94%29.27 "HgN/A
3:50 PM48 °FPassing clouds.35 mph94%29.27 "HgN/A
3:20 PM48 °FSprinkles. Passing clouds.31 mph100%29.27 "Hg4 mi
2:50 PM48 °FLight rain. Partly sunny.36 mph100%29.27 "HgN/A
2:20 PM48 °FLight rain. Fog.36 mph100%29.27 "Hg2 mi
1:50 PM48 °FLight rain. Fog.38 mph100%29.27 "Hg2 mi
1:20 PM46 °FLight rain. Fog.16 mph100%29.33 "Hg2 mi
12:50 PM48 °FLight rain. Partly sunny.28 mph94%29.33 "HgN/A
12:20 PM48 °FLight rain. Broken clouds.26 mph94%29.36 "Hg4 mi
11:50 AM46 °FLight rain. Low clouds.31 mph100%29.36 "Hg3 mi
11:20 AM46 °FLight rain. Fog.37 mph93%29.39 "Hg3 mi
Weather by CustomWeather, © 2014

See weather overviewHow to use our weather pages